Regional Weather Roundup
Issued by NWS

Home | Current Version | Previous Version | Text Only | Print | Product List | Glossary Off
Versions: 1 2 3 4 5 6 7 8 9 10 11 12 13 14 15 16 17 18 19 20 21 22 23 24 25 26 27 28 29 30 31 32 33 34 35 36 37 38 39 40 41 42 43 44 45 46 47 48 49 50

609
ASUS45 KTFX 092010
RWRMT
MONTANA REGIONAL WEATHER ROUNDUP
NATIONAL WEATHER SERVICE GREAT FALLS MT
100 PM MST TUE FEB 09 2016

NOTE: "FAIR" INDICATES FEW OR NO CLOUDS BELOW 12000 FEET WITH NO
SIGNIFICANT WEATHER AND/OR OBSTRUCTIONS TO VISIBILITY.

MTZ001>007-043-092100-
WEST OF THE DIVIDE

CITY           SKY/WX    TMP DP  RH WIND       PRES   REMARKS
KALISPELL      MOSUNNY   37  28  70 CALM      30.42F
MISSOULA       SUNNY     30  27  88 CALM      30.44F
BUTTE          SUNNY     29  26  89 CALM      30.40F
MULLAN PASS    SUNNY     46  31  55 S6        30.38F
ANACONDA         N/A     45  30  57 E3        30.39F
DEER LODGE       N/A     39  30  70 CALM      30.41F
HAMILTON         N/A     43  32  65 N6        30.39F
LIBBY            N/A     36  27  69 CALM        N/A
$$

MTZ008-052>055-092100-
SOUTHWEST MONTANA

CITY           SKY/WX    TMP DP  RH WIND       PRES   REMARKS
BOZEMAN        SUNNY     37  27  67 E3        30.39F
DILLON         SUNNY     40  28  62 S8        30.40F
ENNIS          SUNNY     48  27  43 S16       30.46F
TWIN BRIDGES     N/A     39  27  62 S5        30.35F
$$

MTZ009-010-012-014-046-048-049-054-092100-
EAST SLOPES AND CENTRAL MONTANA

CITY           SKY/WX    TMP DP  RH WIND       PRES   REMARKS
CUT BANK       SUNNY     65  20  17 W20       30.16F
GREAT FALLS    SUNNY     61  27  27 SW20      30.21F
MALMSTROM AFB  SUNNY     62  26  25 SW21      30.22F
HELENA         SUNNY     46  33  60 W5        30.36F
CHOTEAU          N/A     70   9   9 NW7       30.20F
CONRAD           N/A     68  25  20 SW13      30.19F
$$

MTZ011-013-016-021-045-047-050-051-092100-
NORTH CENTRAL MONTANA

CITY           SKY/WX    TMP DP  RH WIND       PRES   REMARKS
HAVRE          SUNNY     54  30  40 SW17      30.18F
LEWISTOWN      SUNNY     53  28  38 W5        30.22F
N BAR RANCH      N/A     59  19  21 W20       30.22F
CHINOOK          N/A     55  27  33 W8G16     30.17F
$$

MTZ017>020-022>027-061-062-092100-
NORTHEAST MONTANA

CITY           SKY/WX    TMP DP  RH WIND       PRES   REMARKS
GLASGOW        SUNNY    N/A N/A N/A W9        30.14F
JORDAN           N/A     51  34  52 W8        30.17F
SIDNEY         CLOUDY    41  21  45 NW3       30.17F
WOLF POINT     MOSUNNY   45  31  58 SW3       30.15F
PLENTYWOOD       N/A     34  21  60 CALM      30.14F
POPLAR           N/A     43  27  52 NW3       30.16F
$$

MTZ028>42-056>058-092100-
SOUTHCENTRAL AND SOUTHEAST MONTANA

CITY           SKY/WX    TMP DP  RH WIND       PRES   REMARKS
BAKER          CLOUDY    44  28  53 W15       30.16F
BILLINGS       MOSUNNY   58  25  28 SW17      30.23F
LIVINGSTON     SUNNY     57  20  23 SW24G32   30.31F
MILES CITY     SUNNY     54  32  43 W9        30.17F
FORSYTH          N/A     57  28  33 W14G21    30.17F
LAUREL           N/A     56  24  29 S12       30.20F
ROUNDUP          N/A     64  22  20 W5        30.10F
$$

REGIONAL REPORTS...DAKOTAS

CITY           SKY/WX    TMP DP  RH WIND       PRES   REMARKS
WILLISTON      CLOUDY    35  23  61 W3        30.16F
MINOT          MOSUNNY   39  16  39 NW7       30.14F
DICKINSON      CLOUDY    37  22  54 NW14      30.12F WCI  28
BEACH          CLOUDY    41  27  56 W10       30.17F
CROSBY         CLOUDY    32  23  69 NW3       30.19S
TIOGA          CLOUDY    32  25  74 W5        30.19F
WATFORD CITY   PTSUNNY   36  23  60 W6        30.16F WCI  31
BISMARCK       MOSUNNY   40  14  34 W10       30.17F
GRAND FORKS    CLOUDY    12   3  67 N16       30.29F WCI  -5
FARGO          CLOUDY    14   5  67 N14       30.26F WCI  -1
BUFFALO SD       N/A     47  30  51 NW24      30.08F
RAPID CITY     CLOUDY    51  29  42 N20G33    30.14F
$$

REGIONAL REPORTS...WYOMING/IDAHO/WASHINGTON

CITY           SKY/WX    TMP DP  RH WIND       PRES   REMARKS
GILLETTE       CLOUDY    49  31  49 NW17      30.22F
SHERIDAN       SUNNY     58  28  32 N17       30.22F
BUFFALO WY     SUNNY     53  29  39 N15       30.24F
CODY           SUNNY     52  27  37 NE7       30.29F
YELLOWSTONE LA   N/A     25  17  72 SE5       30.51F
IDAHO FALLS    CLOUDY    27  24  89 N8        30.56F FOG     WCI  19
SALMON         CLOUDY    19  18  93 CALM      30.58F
BOISE          MOSUNNY   37  29  72 CALM      30.56F
SPOKANE        MOSUNNY   43  33  68 NE9       30.36F
$$

REGIONAL REPORTS...ALBERTA

CITY           SKY/WX    TMP DP  RH WIND       PRES   REMARKS
EDMONTON       SUNNY     45  27  49 SW7       30.01F
CALGARY        PTSUNNY   55  19  24 S8        30.10F
LETHBRIDGE     MOSUNNY   63  23  22 W28       30.12F
MEDICINE HAT   PTSUNNY   50  32  50 SW9       30.13F
MILK RIVER       N/A     64  25  22 SW8         N/A
$$

REGIONAL REPORTS...SASKATCHEWAN

CITY           SKY/WX    TMP DP  RH WIND       PRES   REMARKS
REGINA         FLURRIES  28  23  80 SE8       30.14F WCI  20
SASKATOON      CLOUDY    30  27  86 SE10      30.11F WCI  21
CYPRESS HILLS    N/A     48  27  43 NW9         N/A
VAL MARIE        N/A     52  28  40 W9          N/A
ROCKGLEN         N/A     39  30  70 SW8         N/A
ASSINIBOIA       N/A     39  30  70 SW9         N/A
$$




USA.gov is the U.S. government's official web portal to all federal, state and local government web resources and services.